| time (UTC) | temp F | wind direction | speed knots | gust knots | rain 1hr in | rain 24hr in | rain mn in | humidity % | barometer mb |
| 20260903175754 | 74 | 98 | 0.0 | 0.0 | 0.00 | 0.71 | 0.71 | 93 | 1013.4 |
| 20260903174752 | 74 | 98 | 0.0 | 0.0 | 0.00 | 0.71 | 0.71 | 94 | 1013.4 |
| 20260903173752 | 73 | 98 | 0.0 | 0.0 | 0.01 | 0.71 | 0.71 | 94 | 1013.3 |
| 20260903172756 | 73 | 98 | 0.0 | 0.0 | 0.20 | 0.71 | 0.71 | 94 | 1013.5 |
| 20260903171751 | 72 | 98 | 0.0 | 0.0 | 0.33 | 0.71 | 0.71 | 95 | 1013.4 |
| 20260903170751 | 72 | 98 | 0.0 | 0.0 | 0.33 | 0.71 | 0.71 | 94 | 1013.4 |
| 20260903165753 | 71 | 98 | 0.0 | 0.0 | 0.33 | 0.71 | 0.71 | 94 | 1013.5 |
| 20260903164756 | 70 | 345 | 0.0 | 1.7 | 0.33 | 0.71 | 0.71 | 94 | 1013.7 |
| 20260903163749 | 69 | 344 | 1.7 | 10.4 | 0.38 | 0.70 | 0.70 | 91 | 1013.7 |
| 20260903162752 | 69 | 203 | 4.3 | 23.5 | 0.33 | 0.51 | 0.53 | 89 | 1014.8 |
| 20260903161751 | 69 | 200 | 0.0 | 3.5 | 0.38 | 0.38 | 0.38 | 89 | 1014.9 |
| 20260903160751 | 69 | 217 | 0.0 | 4.3 | 0.38 | 0.38 | 0.38 | 87 | 1015.5 |
| 20260903155750 | 69 | 329 | 1.7 | 4.3 | 0.38 | 0.38 | 0.38 | 86 | 1015.5 |
| 20260903154750 | 70 | 156 | 6.1 | 15.6 | 0.38 | 0.38 | 0.38 | 84 | 1015.7 |
| 20260903153746 | 72 | 130 | 7.8 | 17.4 | 0.32 | 0.32 | 0.33 | 82 | 1016.2 |
| 20260903152751 | 76 | 282 | 4.3 | 27.8 | 0.18 | 0.18 | 0.18 | 82 | 1017.2 |
| 20260903151743 | 79 | 344 | 0.0 | 4.3 | 0.00 | 0.00 | 0.00 | 83 | 1016.3 |
| 20260903150743 | 79 | 198 | 0.0 | 0.0 | 0.00 | 0.00 | 0.00 | 81 | 1014.8 |
| 20260903145746 | 79 | 198 | 0.0 | 0.0 | 0.00 | 0.00 | 0.00 | 80 | 1014.4 |
| 20260903144745 | 79 | 198 | 0.0 | 0.0 | 0.00 | 0.00 | 0.00 | 80 | 1014.0 |
| 20260903143743 | 79 | 198 | 0.0 | 3.5 | 0.00 | 0.00 | 0.00 | 80 | 1014.1 |
| 20260903142741 | 79 | 182 | 0.0 | 6.1 | 0.00 | 0.00 | 0.00 | 80 | 1014.2 |
| 20260903141744 | 78 | 327 | 0.0 | 3.5 | 0.00 | 0.00 | 0.00 | 82 | 1014.1 |
| 20260903140740 | 78 | 327 | 0.0 | 1.7 | 0.00 | 0.00 | 0.00 | 84 | 1014.1 |
| 20260903135749 | 77 | 327 | 0.0 | 3.5 | 0.00 | 0.00 | 0.00 | 85 | 1014.0 |
| 20260903134744 | 77 | 316 | 0.0 | 3.5 | 0.00 | 0.00 | 0.00 | 85 | 1014.1 |
| 20260903133739 | 76 | 317 | 0.0 | 3.5 | 0.00 | 0.00 | 0.00 | 86 | 1014.3 |
| 20260903132736 | 75 | 193 | 0.0 | 3.5 | 0.00 | 0.00 | 0.00 | 89 | 1014.3 |
| 20260903131735 | 74 | 269 | 0.0 | 0.0 | 0.00 | 0.00 | 0.00 | 91 | 1014.2 |
| 20260903130736 | 73 | 233 | 0.0 | 0.0 | 0.00 | 0.00 | 0.00 | 93 | 1014.2 |
| 20260903125735 | 72 | 181 | 0.0 | 0.0 | 0.00 | 0.00 | 0.00 | 93 | 1014.3 |
| 20260903124737 | 72 | 181 | 0.0 | 0.0 | 0.00 | 0.00 | 0.00 | 92 | 1014.5 |
| 20260903123737 | 71 | 181 | 0.0 | 0.0 | 0.00 | 0.00 | 0.00 | 92 | 1014.4 |
| 20260903122736 | 71 | 181 | 0.0 | 0.0 | 0.00 | 0.00 | 0.00 | 92 | 1014.6 |
| 20260903121730 | 71 | 181 | 0.0 | 0.0 | 0.00 | 0.00 | 0.00 | 92 | 1014.6 |
| 20260903120731 | 71 | 181 | 0.0 | 0.0 | 0.00 | 0.00 | 0.00 | 91 | 1014.5 |
| 20260903115728 | 71 | 181 | 0.0 | 0.0 | 0.00 | 0.00 | 0.00 | 91 | 1014.6 |
| 20260903114728 | 71 | 181 | 0.0 | 0.0 | 0.00 | 0.00 | 0.00 | 91 | 1014.5 |
| 20260903113730 | 71 | 181 | 0.0 | 0.0 | 0.00 | 0.00 | 0.00 | 91 | 1014.5 |
| 20260903112729 | 71 | 181 | 1.7 | 3.5 | 0.00 | 0.00 | 0.00 | 91 | 1014.4 |
| 20260903111727 | 71 | 202 | 0.0 | 0.0 | 0.00 | 0.00 | 0.00 | 90 | 1014.3 |
| 20260903110727 | 71 | 202 | 0.0 | 0.0 | 0.00 | 0.00 | 0.00 | 90 | 1014.3 |
| 20260903105730 | 71 | 202 | 0.0 | 0.0 | 0.00 | 0.00 | 0.00 | 90 | 1014.2 |
| 20260903104729 | 71 | 202 | 0.0 | 0.0 | 0.00 | 0.00 | 0.00 | 90 | 1014.1 |
| 20260903103729 | 71 | 202 | 0.0 | 0.0 | 0.00 | 0.00 | 0.00 | 90 | 1013.9 |
| 20260903102728 | 71 | 202 | 0.0 | 0.0 | 0.00 | 0.00 | 0.00 | 90 | 1013.9 |
| 20260903101728 | 71 | 202 | 0.0 | 0.0 | 0.00 | 0.00 | 0.00 | 90 | 1013.8 |
| 20260903100729 | 71 | 202 | 0.0 | 0.0 | 0.00 | 0.00 | 0.00 | 90 | 1013.8 |
| 20260903095728 | 72 | 202 | 0.0 | 0.0 | 0.00 | 0.00 | 0.00 | 90 | 1013.9 |
| 20260903094727 | 72 | 202 | 0.0 | 0.0 | 0.00 | 0.00 | 0.00 | 90 | 1013.8 |
| 20260903093726 | 72 | 202 | 0.0 | 0.0 | 0.00 | 0.00 | 0.00 | 90 | 1013.8 |
| 20260903092726 | 72 | 202 | 0.0 | 0.0 | 0.00 | 0.00 | 0.00 | 90 | 1013.7 |
| 20260903091727 | 72 | 202 | 0.0 | 0.0 | 0.00 | 0.00 | 0.00 | 90 | 1013.5 |
| 20260903090728 | 72 | 202 | 0.0 | 0.0 | 0.00 | 0.00 | 0.00 | 90 | 1013.5 |
| 20260903085725 | 72 | 202 | 0.0 | 0.0 | 0.00 | 0.00 | 0.00 | 90 | 1013.5 |
| 20260903084726 | 72 | 202 | 0.0 | 0.0 | 0.00 | 0.00 | 0.00 | 90 | 1013.4 |
| 20260903083727 | 72 | 202 | 0.0 | 0.0 | 0.00 | 0.00 | 0.00 | 90 | 1013.3 |
| 20260903082725 | 72 | 202 | 0.0 | 0.0 | 0.00 | 0.00 | 0.00 | 90 | 1013.2 |
| 20260903081724 | 72 | 202 | 0.0 | 0.0 | 0.00 | 0.00 | 0.00 | 90 | 1013.2 |
| 20260903080725 | 72 | 202 | 0.0 | 0.0 | 0.00 | 0.00 | 0.00 | 90 | 1013.2 |
| 20260903075719 | 72 | 202 | 0.0 | 0.0 | 0.00 | 0.00 | 0.00 | 90 | 1013.3 |
| 20260903074722 | 72 | 202 | 0.0 | 0.0 | 0.00 | 0.00 | 0.00 | 90 | 1013.4 |
| 20260903073719 | 72 | 202 | 0.0 | 0.0 | 0.00 | 0.00 | 0.00 | 90 | 1013.3 |
| 20260903072720 | 72 | 202 | 0.0 | 0.0 | 0.00 | 0.00 | 0.00 | 90 | 1013.4 |
| 20260903071719 | 72 | 202 | 0.0 | 0.0 | 0.00 | 0.00 | 0.00 | 89 | 1013.4 |
| 20260903070720 | 72 | 202 | 0.0 | 0.0 | 0.00 | 0.00 | 0.00 | 89 | 1013.4 |
| 20260903065719 | 72 | 202 | 0.0 | 0.0 | 0.00 | 0.00 | 0.00 | 89 | 1013.3 |
| 20260903064718 | 73 | 202 | 0.0 | 0.0 | 0.00 | 0.00 | 0.00 | 89 | 1013.3 |
| 20260903063725 | 73 | 202 | 0.0 | 3.5 | 0.00 | 0.00 | 0.00 | 89 | 1013.1 |
| 20260903062718 | 73 | 202 | 0.0 | 0.0 | 0.00 | 0.00 | 0.00 | 89 | 1013.3 |
| 20260903061714 | 73 | 202 | 1.7 | 4.3 | 0.00 | 0.00 | 0.00 | 89 | 1013.4 |
| 20260903060711 | 73 | 192 | 0.0 | 0.0 | 0.00 | 0.00 | 0.00 | 88 | 1013.5 |
| 20260903055711 | 73 | 189 | 0.0 | 0.0 | 0.00 | 0.00 | 0.00 | 88 | 1013.5 |
| 20260903054715 | 73 | 189 | 0.0 | 0.0 | 0.00 | 0.00 | 0.00 | 88 | 1013.5 |
| 20260903053712 | 73 | 189 | 0.0 | 0.0 | 0.00 | 0.00 | 0.00 | 88 | 1013.4 |
| 20260903052711 | 73 | 189 | 0.0 | 1.7 | 0.00 | 0.00 | 0.00 | 88 | 1013.5 |
| 20260903051712 | 74 | 205 | 0.0 | 1.7 | 0.00 | 0.00 | 0.00 | 87 | 1013.6 |
| 20260903050719 | 74 | 205 | 0.0 | 3.5 | 0.00 | 0.00 | 0.00 | 87 | 1013.6 |
| 20260903045710 | 74 | 205 | 0.0 | 0.0 | 0.00 | 0.00 | 0.00 | 87 | 1013.7 |
| 20260903044711 | 74 | 205 | 0.0 | 1.7 | 0.00 | 0.00 | 0.00 | 87 | 1013.4 |
| 20260903043709 | 74 | 205 | 0.0 | 3.5 | 0.00 | 0.00 | 0.00 | 86 | 1013.5 |
| 20260903042710 | 75 | 187 | 1.7 | 7.8 | 0.00 | 0.00 | 0.00 | 86 | 1013.5 |
| 20260903041709 | 75 | 191 | 3.5 | 7.8 | 0.00 | 0.00 | 0.00 | 86 | 1013.5 |
| 20260903040709 | 76 | 198 | 0.0 | 3.5 | 0.00 | 0.00 | 0.00 | 85 | 1013.3 |
| 20260903035707 | 76 | 194 | 0.0 | 6.1 | 0.00 | 0.00 | 0.00 | 85 | 1013.3 |
| 20260903034710 | 76 | 194 | 1.7 | 4.3 | 0.00 | 0.00 | 0.00 | 85 | 1013.4 |
| 20260903033710 | 77 | 188 | 3.5 | 10.4 | 0.00 | 0.00 | 0.00 | 86 | 1013.5 |
| 20260903032704 | 76 | 175 | 1.7 | 7.8 | 0.00 | 0.00 | 0.00 | 86 | 1013.1 |
| 20260903031703 | 76 | 165 | 3.5 | 9.6 | 0.00 | 0.00 | 0.00 | 85 | 1013.5 |
| 20260903030701 | 76 | 200 | 1.7 | 4.3 | 0.00 | 0.00 | 0.00 | 85 | 1012.8 |
| 20260903025705 | 77 | 355 | 0.0 | 1.7 | 0.00 | 0.00 | 0.00 | 85 | 1012.6 |
| 20260903024704 | 76 | 355 | 0.0 | 1.7 | 0.00 | 0.00 | 0.00 | 85 | 1011.7 |
| 20260903023700 | 77 | 355 | 0.0 | 3.5 | 0.00 | 0.00 | 0.00 | 85 | 1012.3 |
| 20260903022701 | 77 | 325 | 0.0 | 0.0 | 0.00 | 0.00 | 0.00 | 85 | 1012.1 |
| 20260903021703 | 77 | 325 | 0.0 | 0.0 | 0.00 | 0.00 | 0.00 | 84 | 1012.6 |
| 20260903020710 | 77 | 325 | 0.0 | 1.7 | 0.00 | 0.00 | 0.00 | 82 | 1013.1 |
| 20260903015659 | 78 | 325 | 0.0 | 1.7 | 0.00 | 0.00 | 0.00 | 81 | 1013.4 |
| 20260903014655 | 79 | 325 | 0.0 | 1.7 | 0.00 | 0.00 | 0.00 | 79 | 1013.3 |
| 20260903013655 | 79 | 325 | 1.7 | 4.3 | 0.00 | 0.00 | 0.00 | 78 | 1013.3 |
| 20260903012656 | 81 | 350 | 3.5 | 7.8 | 0.00 | 0.00 | 0.00 | 76 | 1013.0 |
| 20260903011657 | 82 | 306 | 3.5 | 6.1 | 0.00 | 0.00 | 0.00 | 70 | 1013.0 |
| 20260903010655 | 82 | 323 | 1.7 | 4.3 | 0.00 | 0.00 | 0.00 | 67 | 1012.6 |
| 20260903005654 | 82 | 210 | 0.0 | 1.7 | 0.00 | 0.00 | 0.00 | 66 | 1012.4 |
| 20260903004656 | 83 | 192 | 1.7 | 4.3 | 0.00 | 0.00 | 0.00 | 65 | 1012.3 |
| 20260903003659 | 83 | 192 | 3.5 | 7.8 | 0.00 | 0.00 | 0.00 | 64 | 1012.2 |
| 20260903002654 | 83 | 181 | 4.3 | 20.0 | 0.00 | 0.00 | 0.00 | 72 | 1012.2 |
| 20260903001656 | 82 | 193 | 1.7 | 4.3 | 0.00 | 0.00 | 0.00 | 76 | 1011.9 |
| 20260903000653 | 85 | 234 | 0.0 | 3.5 | 0.00 | 0.00 | 0.00 | 70 | 1012.1 |
| 20260902235653 | 86 | 182 | 0.0 | 3.5 | 0.00 | 0.00 | 0.00 | 67 | 1011.9 |
| 20260902234653 | 87 | 186 | 1.7 | 7.8 | 0.00 | 0.00 | 0.00 | 67 | 1012.3 |
| 20260902233652 | 87 | 171 | 0.0 | 3.5 | 0.00 | 0.00 | 0.00 | 67 | 1012.3 |
| 20260902232652 | 87 | 190 | 0.0 | 1.7 | 0.00 | 0.00 | 0.00 | 67 | 1012.2 |
| 20260902231652 | 87 | 185 | 0.0 | 3.5 | 0.00 | 0.00 | 0.00 | 66 | 1012.3 |
| 20260902230650 | 87 | 180 | 1.7 | 6.1 | 0.00 | 0.00 | 0.00 | 66 | 1012.4 |
| 20260902225658 | 88 | 182 | 1.7 | 7.8 | 0.00 | 0.00 | 0.00 | 65 | 1012.4 |
| 20260902224651 | 88 | 227 | 1.7 | 3.5 | 0.00 | 0.00 | 0.00 | 64 | 1012.4 |
| 20260902223650 | 89 | 206 | 3.5 | 10.4 | 0.00 | 0.00 | 0.00 | 63 | 1012.1 |
| 20260902222649 | 89 | 200 | 3.5 | 10.4 | 0.00 | 0.00 | 0.00 | 61 | 1011.8 |
| 20260902221651 | 90 | 238 | 1.7 | 13.9 | 0.00 | 0.00 | 0.00 | 62 | 1011.8 |
| 20260902220649 | 89 | 334 | 1.7 | 7.8 | 0.00 | 0.00 | 0.00 | 62 | 1011.8 |
| 20260902215645 | 90 | 180 | 1.7 | 6.1 | 0.00 | 0.00 | 0.00 | 61 | 1011.9 |
| 20260902214648 | 90 | 159 | 1.7 | 4.3 | 0.00 | 0.00 | 0.00 | 60 | 1011.7 |
| 20260902213650 | 90 | 175 | 3.5 | 9.6 | 0.00 | 0.00 | 0.00 | 59 | 1011.7 |
| 20260902212642 | 90 | 140 | 3.5 | 12.2 | 0.00 | 0.00 | 0.00 | 57 | 1011.8 |
| 20260902211645 | 90 | 252 | 3.5 | 13.9 | 0.00 | 0.00 | 0.00 | 59 | 1011.9 |
| 20260902210641 | 90 | 169 | 3.5 | 17.4 | 0.00 | 0.00 | 0.00 | 59 | 1012.1 |
| 20260902205640 | 89 | 154 | 1.7 | 6.1 | 0.00 | 0.00 | 0.00 | 60 | 1012.2 |
| 20260902204643 | 90 | 229 | 3.5 | 12.2 | 0.00 | 0.00 | 0.00 | 58 | 1012.3 |
| 20260902203641 | 90 | 171 | 4.3 | 20.0 | 0.00 | 0.00 | 0.00 | 58 | 1012.3 |
| 20260902202640 | 91 | 144 | 3.5 | 13.9 | 0.00 | 0.00 | 0.00 | 57 | 1012.3 |
| 20260902201640 | 91 | 260 | 1.7 | 9.6 | 0.00 | 0.00 | 0.00 | 59 | 1012.5 |
| 20260902200648 | 91 | 224 | 3.5 | 7.8 | 0.00 | 0.00 | 0.00 | 58 | 1012.7 |
| 20260902195640 | 91 | 198 | 3.5 | 12.2 | 0.00 | 0.00 | 0.00 | 56 | 1012.7 |
| 20260902194636 | 92 | 206 | 1.7 | 10.4 | 0.00 | 0.00 | 0.00 | 59 | 1012.8 |
| 20260902193632 | 92 | 355 | 1.7 | 10.4 | 0.00 | 0.00 | 0.00 | 58 | 1012.9 |
| 20260902192633 | 91 | 271 | 3.5 | 9.6 | 0.00 | 0.00 | 0.00 | 57 | 1013.1 |
| 20260902191634 | 92 | 355 | 3.5 | 7.8 | 0.00 | 0.00 | 0.00 | 54 | 1013.3 |
| 20260902190631 | 91 | 169 | 3.5 | 9.6 | 0.00 | 0.00 | 0.00 | 55 | 1013.3 |
| 20260902185635 | 92 | 333 | 1.7 | 7.8 | 0.00 | 0.00 | 0.00 | 57 | 1013.3 |
| 20260902184634 | 92 | 261 | 3.5 | 7.8 | 0.00 | 0.00 | 0.00 | 57 | 1013.3 |
| 20260902183633 | 92 | 225 | 1.7 | 9.6 | 0.00 | 0.00 | 0.00 | 58 | 1013.3 |
| 20260902182629 | 91 | 311 | 1.7 | 12.2 | 0.00 | 0.00 | 0.00 | 61 | 1013.3 |
| 20260902181628 | 91 | 203 | 3.5 | 12.2 | 0.00 | 0.00 | 0.00 | 60 | 1013.4 |